[[[{"header":{"parameterUnit":"kt","parameterCategory":2,"dx":1,"dy":1,"la1":30.253999710083008,"la2":30.299108505249023,"lo1":-89.0895004272461,"lo2":-89.04439544677734,"nx":28,"ny":28,"refTime":"2022-10-29T21:00:00:Z","depth":0,"parameterNumber":1,"parameterNumberName":"U-component_of_WINDS"},"data":[4.7301,4.7428,4.7468,4.7633,4.7697,4.7817,4.7873,4.795,4.8022,4.8172,4.8265,4.832,4.841,4.8533,4.8638,4.8661,4.8703,4.8718,4.8743,4.8637,4.8625,4.8614,4.8586,4.8726,4.8726,4.8847,4.8848,4.8849,4.7219,4.7284,4.7382,4.7505,4.759,4.76,4.77,4.7771,4.7879,4.7969,4.8063,4.8198,4.8311,4.8398,4.8515,4.8577,4.859,4.8606,4.8603,4.8617,4.8505,4.8475,4.8594,4.8594,4.8594,4.8594,4.8594,4.8594,4.7082,4.7156,4.7254,4.7362,4.7435,4.7518,4.7597,4.7662,4.7761,4.7885,4.7916,4.804,4.8139,4.83,4.8365,4.8464,4.8454,4.8486,4.8494,4.8502,4.8504,4.8326,4.8486,4.8486,4.8485,4.8485,4.8485,0,4.6994,4.7023,4.712,4.723,4.7311,4.74,4.749,4.754,4.7617,4.7695,4.7812,4.7887,4.8035,4.8152,4.8271,4.8333,4.8354,4.836,4.8383,4.837,4.8343,4.8361,4.8177,4.8356,4.8355,4.8355,4.8354,4.8354,4.686,4.6941,4.7064,4.7127,4.7186,4.7287,4.7356,4.7418,4.7489,4.7609,4.7673,4.7789,4.7886,4.8069,4.8148,4.826,4.8272,4.8335,4.8289,4.8273,4.8275,4.827,4.8279,4.8344,4.8345,4.8346,4.8347,0,4.6781,4.6847,4.6987,4.7101,4.7133,4.7216,4.7315,4.7393,4.7448,4.7564,4.7595,4.7684,4.7799,4.7868,4.8013,4.8046,4.8188,4.8196,4.8154,4.816,4.8225,4.8218,4.8423,4.8453,4.8307,4.8308,4.8309,0,4.6693,4.6798,4.6892,4.697,4.7089,4.7149,4.7266,4.7326,4.7412,4.7503,4.7537,4.7622,4.7697,4.7793,4.7842,4.797,4.7997,4.803,4.8042,4.8028,4.8024,4.8069,4.8063,4.8064,4.8063,4.8062,4.8061,0,4.6563,4.6737,4.6863,4.6914,4.7047,4.7106,4.7164,4.7261,4.7328,4.7427,4.7472,4.7584,4.7645,4.7731,4.7793,4.7759,4.795,4.7916,4.7985,4.7983,4.8025,4.8022,4.8184,4.806,4.806,4.8059,4.8059,0,4.6504,4.66,4.6773,4.6885,4.6929,4.7013,4.7125,4.7213,4.7313,4.7348,4.7427,4.7459,4.7575,4.7536,4.7698,4.7636,4.7695,4.7738,4.7744,4.776,4.7715,4.7799,4.7944,4.7963,4.7773,4.777,4.7768,0,4.6338,4.653,4.6582,4.6746,4.6845,4.6876,4.697,4.7057,4.7113,4.7206,4.7268,4.7374,4.7359,4.7402,4.7473,4.7542,4.7622,4.7533,4.767,4.7674,4.7643,4.7778,4.7783,4.7904,4.7739,4.7742,4.7744,0,4.6218,4.6377,4.6403,4.6464,4.6587,4.667,4.6778,4.6896,4.6955,4.7049,4.7143,4.7293,4.7289,4.736,4.7397,4.7468,4.757,4.7454,4.7458,4.7474,4.7729,4.7733,4.7754,4.758,4.7584,4.7587,4.7721,0,4.6115,4.622,4.6291,4.6422,4.6497,4.6603,4.6675,4.6744,4.6772,4.6828,4.6967,4.7058,4.7179,4.722,4.7249,4.7386,4.7375,4.7369,4.7339,4.7425,4.7471,4.749,4.7264,4.7263,4.7263,4.7262,0,0,4.594,4.6092,4.6146,4.6253,4.6319,4.635,4.6457,4.6526,4.6664,4.671,4.6693,4.6918,4.6993,4.7155,4.7187,4.7236,4.7268,4.7235,4.7383,4.7396,4.7408,4.7456,4.7474,4.7262,4.7262,4.7261,4.7261,0,4.5918,4.599,4.6094,4.6168,4.6278,4.6332,4.6356,4.6472,4.6513,4.6648,4.6674,4.6766,4.6944,4.7021,4.7083,4.7217,4.7232,4.7248,4.7296,4.7376,4.739,4.7402,4.7451,4.7468,4.726,4.726,4.726,0,4.5814,4.5897,4.5955,4.6106,4.6179,4.628,4.6264,4.6371,4.6447,4.6478,4.6612,4.6673,4.6782,4.6924,4.699,4.6977,4.7195,4.7139,4.7144,4.7154,4.7235,4.7251,4.7266,4.7075,4.7074,4.7073,0,0,4.5785,4.5882,4.5992,4.6107,4.6151,4.6233,4.6293,4.6328,4.6423,4.6461,4.654,4.6633,4.6738,4.6805,4.6907,4.7053,4.7081,4.7113,4.7122,4.7129,4.7142,4.7225,4.7241,4.707,4.707,4.707,0,0,4.5772,4.5903,4.5914,4.6056,4.6145,4.6262,4.633,4.6347,4.6446,4.6442,4.6507,4.6535,4.6669,4.6728,4.6671,4.6898,4.6866,4.6881,4.6854,4.6867,4.6875,4.6859,4.667,0,0,0,0,0,4.5786,4.5886,4.5895,4.5929,4.6122,4.6257,4.6282,4.6337,4.6312,4.6365,4.6434,4.6446,4.6711,4.6662,4.6696,4.676,4.7023,4.7032,4.7039,4.704,4.7052,4.7062,0,0,0,0,0,0,4.58,4.5842,4.5893,4.6012,4.6056,4.6253,4.6225,4.6243,4.6308,4.6308,4.6432,4.645,4.65,4.6648,4.6679,4.6738,4.666,4.7027,4.7034,4.704,4.7044,4.7054,4.7062,0,0,0,0,0,4.5811,4.5845,4.6138,4.6012,4.605,4.6147,4.6221,4.6236,4.6288,4.6394,4.6412,4.6323,4.65,4.653,4.6667,4.6723,4.664,4.6651,4.7031,4.7037,4.7042,4.7049,0,0,0,0,0,0,4.582,4.586,4.6147,4.6161,4.5978,4.6137,4.6164,4.623,4.6371,4.6389,4.6288,4.6287,4.6502,4.6524,4.6546,4.6714,4.6623,4.6634,4.6641,4.7035,4.704,4.7044,0,0,0,0,0,0,4.5843,4.5872,4.6154,4.6108,4.6117,4.6127,4.6151,4.6276,4.6372,4.6257,4.626,4.6286,4.6469,4.6521,4.6538,4.6731,4.661,4.6621,4.6628,4.6633,4.7039,4.7042,0,0,0,0,0,0,4.5856,4.5881,4.6105,4.6112,4.612,4.6278,4.6239,4.6433,4.633,4.6251,4.6323,4.6319,4.6465,4.6484,4.6532,4.6717,4.6727,4.661,4.6618,4.6623,4.6626,0,0,0,0,0,0,0,4.5867,4.5685,4.6066,4.6115,4.6122,4.6288,4.6292,4.6295,4.6329,4.6326,4.6323,4.6321,4.6549,4.6561,4.6573,4.6707,0,0,4.6609,4.6615,0,0,0,0,0,0,0,0,4.5676,4.5683,4.6066,4.6069,4.6072,4.6288,4.6291,4.6295,4.6329,4.6326,4.6324,4.6322,4.6552,4.6562,4.6571,0,0,0,0,0,0,0,0,0,0,0,0,0,0,0,4.6067,4.6069,0,4.6289,4.6291,4.6294,4.6329,4.6327,4.6325,4.6323,4.6555,4.6563,4.6571,0,0,0,0,0,0,0,0,0,0,0,0,0,0,0,0,0,0,0,0,0,0,0,0,0,0,0,0,0,0,0,0,0,0,0,0,0,0,0,0,0,0,0,0,0,0,0,0,0,0,0,0,0,0,0,0,0,0,0,0,0,0,0,0,0,0,0,0,0]}],[{"header":{"parameterUnit":"kt","parameterCategory":2,"dx":1,"dy":1,"la1":30.253999710083008,"la2":30.299108505249023,"lo1":-89.0895004272461,"lo2":-89.04439544677734,"nx":28,"ny":28,"refTime":"2022-10-29T21:00:00:Z","depth":0,"parameterNumber":2,"parameterNumberName":"V-component_of_WINDS"},"data":[-0.8605,-0.8623,-0.8602,-0.8613,-0.8595,-0.8599,-0.8594,-0.8584,-0.8571,-0.8574,-0.8571,-0.8551,-0.853,-0.8522,-0.8518,-0.8509,-0.851,-0.8532,-0.8518,-0.8437,-0.8424,-0.8412,-0.8406,-0.8532,-0.8532,-0.8605,-0.8606,-0.8606,-0.8549,-0.8532,-0.8531,-0.8516,-0.8515,-0.8481,-0.8466,-0.8468,-0.8472,-0.8456,-0.8452,-0.8452,-0.845,-0.842,-0.8413,-0.8422,-0.8405,-0.8422,-0.8421,-0.8418,-0.8331,-0.8325,-0.8435,-0.8435,-0.8435,-0.8435,-0.8435,-0.8435,-0.8441,-0.8453,-0.8431,-0.843,-0.8416,-0.8406,-0.8413,-0.8388,-0.8387,-0.8378,-0.8352,-0.8356,-0.8336,-0.8317,-0.8305,-0.8308,-0.8286,-0.8297,-0.83,-0.8303,-0.8311,-0.821,-0.8306,-0.8305,-0.8305,-0.8305,-0.8304,0,-0.8356,-0.8337,-0.8334,-0.8326,-0.8323,-0.8314,-0.8302,-0.8306,-0.8258,-0.8259,-0.8259,-0.8255,-0.8248,-0.8245,-0.8234,-0.8219,-0.8183,-0.8177,-0.8184,-0.8197,-0.8211,-0.8205,-0.8064,-0.8174,-0.8173,-0.8172,-0.8171,-0.8171,-0.8246,-0.8262,-0.8228,-0.8229,-0.8217,-0.8219,-0.8216,-0.8172,-0.8171,-0.815,-0.8162,-0.8158,-0.8153,-0.8156,-0.8126,-0.8121,-0.8103,-0.8148,-0.8102,-0.8114,-0.8105,-0.8105,-0.8106,-0.8158,-0.816,-0.8161,-0.8162,0,-0.8187,-0.8151,-0.8167,-0.8131,-0.8123,-0.8142,-0.8111,-0.812,-0.8094,-0.8104,-0.8104,-0.8063,-0.8063,-0.8026,-0.8018,-0.7999,-0.803,-0.8013,-0.8037,-0.8032,-0.8068,-0.8066,-0.8192,-0.8207,-0.8075,-0.8076,-0.8078,0,-0.8079,-0.8101,-0.8046,-0.8057,-0.808,-0.8035,-0.8059,-0.8039,-0.802,-0.8027,-0.798,-0.7987,-0.7937,-0.794,-0.7911,-0.7929,-0.7928,-0.7914,-0.7906,-0.7919,-0.7921,-0.7918,-0.7912,-0.7887,-0.7886,-0.7886,-0.7885,0,-0.7991,-0.7986,-0.8004,-0.7997,-0.7961,-0.7971,-0.7956,-0.7934,-0.7931,-0.7921,-0.7919,-0.7911,-0.7907,-0.7902,-0.7865,-0.7835,-0.7886,-0.7838,-0.7872,-0.7873,-0.7886,-0.7885,-0.8006,-0.7884,-0.7884,-0.7884,-0.7884,0,-0.7898,-0.7888,-0.7921,-0.7889,-0.7889,-0.7902,-0.789,-0.7892,-0.7872,-0.7854,-0.7846,-0.781,-0.7822,-0.7777,-0.7794,-0.7766,-0.7765,-0.7752,-0.7754,-0.7753,-0.7704,-0.7778,-0.7897,-0.7908,-0.7752,-0.7751,-0.775,0,-0.7807,-0.7829,-0.7789,-0.7821,-0.7826,-0.7772,-0.7785,-0.7768,-0.7745,-0.7746,-0.772,-0.7722,-0.768,-0.7675,-0.7689,-0.7662,-0.7699,-0.7656,-0.7659,-0.766,-0.7667,-0.7775,-0.7803,-0.7875,-0.7736,-0.7737,-0.7738,0,-0.7731,-0.7685,-0.7693,-0.7683,-0.7653,-0.7657,-0.7672,-0.7662,-0.7665,-0.7651,-0.7663,-0.7663,-0.7632,-0.7624,-0.7594,-0.761,-0.7673,-0.7574,-0.7572,-0.7593,-0.7725,-0.7751,-0.7763,-0.7649,-0.7651,-0.7652,-0.7727,0,-0.76,-0.7606,-0.7626,-0.7605,-0.7602,-0.7619,-0.7577,-0.7579,-0.755,-0.7525,-0.7541,-0.7516,-0.7507,-0.751,-0.7482,-0.753,-0.7516,-0.7482,-0.7435,-0.7507,-0.7531,-0.754,-0.7404,-0.7402,-0.7401,-0.74,0,0,-0.7522,-0.7529,-0.7485,-0.7496,-0.7491,-0.7434,-0.7456,-0.7444,-0.7421,-0.7418,-0.7392,-0.7389,-0.7371,-0.7394,-0.7413,-0.7409,-0.7414,-0.7391,-0.7473,-0.7482,-0.7489,-0.7515,-0.7526,-0.7397,-0.7397,-0.7396,-0.7396,0,-0.7466,-0.7447,-0.7469,-0.7454,-0.743,-0.7402,-0.7408,-0.7374,-0.7359,-0.7373,-0.7326,-0.7331,-0.733,-0.7316,-0.7309,-0.7387,-0.7351,-0.7387,-0.7443,-0.7461,-0.7471,-0.748,-0.7508,-0.7518,-0.7392,-0.7393,-0.7393,0,-0.7384,-0.7359,-0.7365,-0.7348,-0.7332,-0.7338,-0.7279,-0.7288,-0.7292,-0.7228,-0.7244,-0.7225,-0.7203,-0.723,-0.724,-0.7217,-0.7296,-0.7263,-0.7271,-0.7271,-0.7286,-0.7299,-0.731,-0.7165,-0.7165,-0.7164,0,0,-0.7341,-0.7345,-0.7304,-0.7333,-0.7326,-0.7284,-0.7283,-0.7253,-0.7234,-0.7227,-0.7202,-0.7185,-0.7184,-0.7184,-0.7181,-0.7217,-0.7209,-0.7237,-0.7248,-0.7256,-0.7262,-0.728,-0.7292,-0.7162,-0.7162,-0.7162,0,0,-0.732,-0.7273,-0.7246,-0.7274,-0.7258,-0.7219,-0.7239,-0.7205,-0.7198,-0.7191,-0.7141,-0.7134,-0.7159,-0.7142,-0.7115,-0.7164,-0.7118,-0.7124,-0.7174,-0.7187,-0.7197,-0.7201,-0.7051,0,0,0,0,0,-0.724,-0.7279,-0.7255,-0.7253,-0.7232,-0.7233,-0.723,-0.7189,-0.7158,-0.7174,-0.7147,-0.7109,-0.7117,-0.7093,-0.7092,-0.7122,-0.7132,-0.7137,-0.7142,-0.7215,-0.7229,-0.7241,0,0,0,0,0,0,-0.7239,-0.7237,-0.7254,-0.7217,-0.7212,-0.7231,-0.7169,-0.7159,-0.7155,-0.7147,-0.7115,-0.7108,-0.7073,-0.709,-0.709,-0.7119,-0.7051,-0.7134,-0.7138,-0.7142,-0.722,-0.7231,-0.7241,0,0,0,0,0,-0.7238,-0.7236,-0.7212,-0.7216,-0.7212,-0.7167,-0.7167,-0.7158,-0.7154,-0.7113,-0.7104,-0.7124,-0.7075,-0.7072,-0.709,-0.712,-0.705,-0.7051,-0.7137,-0.714,-0.7143,-0.7225,0,0,0,0,0,0,-0.7237,-0.7228,-0.7211,-0.7208,-0.7198,-0.7165,-0.7158,-0.7158,-0.7119,-0.7111,-0.7119,-0.7114,-0.7077,-0.7074,-0.7072,-0.7123,-0.705,-0.705,-0.7051,-0.7139,-0.7142,-0.7145,0,0,0,0,0,0,-0.7229,-0.7226,-0.7209,-0.7189,-0.7183,-0.7164,-0.7158,-0.7167,-0.7119,-0.7127,-0.7122,-0.7117,-0.708,-0.7076,-0.7074,-0.709,-0.705,-0.705,-0.705,-0.705,-0.7142,-0.7144,0,0,0,0,0,0,-0.7227,-0.7225,-0.7189,-0.7185,-0.718,-0.7144,-0.7171,-0.7151,-0.7102,-0.713,-0.7096,-0.7094,-0.7083,-0.708,-0.7076,-0.7093,-0.7091,-0.705,-0.705,-0.705,-0.705,0,0,0,0,0,0,0,-0.7226,-0.725,-0.7228,-0.7182,-0.7177,-0.7181,-0.718,-0.7179,-0.7101,-0.7099,-0.7097,-0.7095,-0.7049,-0.7049,-0.7049,-0.7095,0,0,-0.705,-0.705,0,0,0,0,0,0,0,0,-0.725,-0.725,-0.7228,-0.7227,-0.7227,-0.7181,-0.718,-0.718,-0.7101,-0.7099,-0.7097,-0.7096,-0.7049,-0.7049,-0.7049,0,0,0,0,0,0,0,0,0,0,0,0,0,0,0,-0.7228,-0.7227,0,-0.7181,-0.718,-0.718,-0.7101,-0.7099,-0.7098,-0.7096,-0.7049,-0.7049,-0.7049,0,0,0,0,0,0,0,0,0,0,0,0,0,0,0,0,0,0,0,0,0,0,0,0,0,0,0,0,0,0,0,0,0,0,0,0,0,0,0,0,0,0,0,0,0,0,0,0,0,0,0,0,0,0,0,0,0,0,0,0,0,0,0,0,0,0,0,0,0]}]]]